Data supplied by UK-AIR on 4/5/2023
All Data GMT hour ending 
Status: R =Ratified P=Provisional,P*=As supplied
,,Oxford St Ebbes,,,,,,,,,,,,,,,,,,,,,,,
Date,time,"PM<sub>10</sub> particulate matter (Hourly measured)",status,unit,"Nitric oxide",status,unit,"Nitrogen dioxide",status,unit,"Nitrogen oxides as nitrogen dioxide",status,unit,"PM<sub>2.5</sub> particulate matter (Hourly measured)",status,unit
 
01-01-2022,01:00,16.100,R,ugm-3 (FIDAS),0.81274,R,ugm-3,5.06180,R,ugm-3,6.30799,R,ugm-3,12.759,R,ugm-3 (Ref.eq)
01-01-2022,02:00,11.825,R,ugm-3 (FIDAS),0.23705,R,ugm-3,2.80785,R,ugm-3,3.17132,R,ugm-3,8.184,R,ugm-3 (Ref.eq)
01-01-2022,03:00,14.575,R,ugm-3 (FIDAS),0.44023,R,ugm-3,2.23636,R,ugm-3,2.91138,R,ugm-3,10.094,R,ugm-3 (Ref.eq)
01-01-2022,04:00,15.200,R,ugm-3 (FIDAS),0.40637,R,ugm-3,1.56044,R,ugm-3,2.18353,R,ugm-3,10.778,R,ugm-3 (Ref.eq)
01-01-2022,05:00,13.575,R,ugm-3 (FIDAS),0.30478,R,ugm-3,1.87218,R,ugm-3,2.33950,R,ugm-3,9.387,R,ugm-3 (Ref.eq)
01-01-2022,06:00,12.350,R,ugm-3 (FIDAS),0.30478,R,ugm-3,2.70400,R,ugm-3,3.17132,R,ugm-3,7.948,R,ugm-3 (Ref.eq)
01-01-2022,07:00,11.750,R,ugm-3 (FIDAS),0.64342,R,ugm-3,7.01973,R,ugm-3,8.00629,R,ugm-3,7.759,R,ugm-3 (Ref.eq)
01-01-2022,08:00,12.050,R,ugm-3 (FIDAS),0.47410,R,ugm-3,5.19979,R,ugm-3,5.92673,R,ugm-3,7.759,R,ugm-3 (Ref.eq)
01-01-2022,09:00,13.825,R,ugm-3 (FIDAS),0.50796,R,ugm-3,4.31605,R,ugm-3,5.09491,R,ugm-3,8.019,R,ugm-3 (Ref.eq)
01-01-2022,10:00,14.675,R,ugm-3 (FIDAS),0.77888,R,ugm-3,3.79667,R,ugm-3,4.99093,R,ugm-3,8.373,R,ugm-3 (Ref.eq)
01-01-2022,11:00,16.400,R,ugm-3 (FIDAS),1.04979,R,ugm-3,4.31708,R,ugm-3,5.92673,R,ugm-3,9.033,R,ugm-3 (Ref.eq)
01-01-2022,12:00,17.575,R,ugm-3 (FIDAS),0.98206,R,ugm-3,5.98060,R,ugm-3,7.48640,R,ugm-3,9.552,R,ugm-3 (Ref.eq)
01-01-2022,13:00,17.600,R,ugm-3 (FIDAS),1.28684,R,ugm-3,7.02095,R,ugm-3,8.99408,R,ugm-3,9.882,R,ugm-3 (Ref.eq)
01-01-2022,14:00,14.650,R,ugm-3 (FIDAS),1.49002,R,ugm-3,7.38526,R,ugm-3,9.66993,R,ugm-3,8.821,R,ugm-3 (Ref.eq)
01-01-2022,15:00,18.000,R,ugm-3 (FIDAS),1.01593,R,ugm-3,5.35679,R,ugm-3,6.91452,R,ugm-3,10.826,R,ugm-3 (Ref.eq)
01-01-2022,16:00,21.900,R,ugm-3 (FIDAS),0.67728,R,ugm-3,5.25217,R,ugm-3,6.29066,R,ugm-3,12.759,R,ugm-3 (Ref.eq)
01-01-2022,17:00,21.375,R,ugm-3 (FIDAS),1.08365,R,ugm-3,6.81261,R,ugm-3,8.47419,R,ugm-3,12.217,R,ugm-3 (Ref.eq)
01-01-2022,18:00,22.300,R,ugm-3 (FIDAS),0.44023,R,ugm-3,5.92757,R,ugm-3,6.60259,R,ugm-3,12.500,R,ugm-3 (Ref.eq)
01-01-2022,19:00,20.100,R,ugm-3 (FIDAS),0.77888,R,ugm-3,4.99242,R,ugm-3,6.18668,R,ugm-3,11.793,R,ugm-3 (Ref.eq)
01-01-2022,20:00,20.625,R,ugm-3 (FIDAS),0.77888,R,ugm-3,5.04441,R,ugm-3,6.23867,R,ugm-3,12.311,R,ugm-3 (Ref.eq)
01-01-2022,21:00,18.425,R,ugm-3 (FIDAS),0.67728,R,ugm-3,5.04422,R,ugm-3,6.08270,R,ugm-3,11.179,R,ugm-3 (Ref.eq)
01-01-2022,22:00,20.300,R,ugm-3 (FIDAS),0.47410,R,ugm-3,4.36797,R,ugm-3,5.09491,R,ugm-3,11.981,R,ugm-3 (Ref.eq)
01-01-2022,23:00,20.450,R,ugm-3 (FIDAS),0.67728,R,ugm-3,4.83626,R,ugm-3,5.87475,R,ugm-3,11.722,R,ugm-3 (Ref.eq)
01-01-2022,24:00,19.625,R,ugm-3 (FIDAS),0.37251,R,ugm-3,1.71634,R,ugm-3,2.28751,R,ugm-3,11.368,R,ugm-3 (Ref.eq)
02-01-2022,01:00,17.200,R,ugm-3 (FIDAS),0.40652,R,ugm-3,0.90219,R,ugm-3,1.52551,R,ugm-3,10.118,R,ugm-3 (Ref.eq)
02-01-2022,02:00,14.025,R,ugm-3 (FIDAS),0.22585,R,ugm-3,1.31790,R,ugm-3,1.66419,R,ugm-3,8.231,R,ugm-3 (Ref.eq)
02-01-2022,03:00,13.000,R,ugm-3 (FIDAS),0.37264,R,ugm-3,1.09281,R,ugm-3,1.66419,R,ugm-3,7.712,R,ugm-3 (Ref.eq)
02-01-2022,04:00,13.150,R,ugm-3 (FIDAS),0.27101,R,ugm-3,0.67658,R,ugm-3,1.09212,R,ugm-3,7.241,R,ugm-3 (Ref.eq)
02-01-2022,05:00,9.400,R,ugm-3 (FIDAS),0.13551,R,ugm-3,0.52031,R,ugm-3,0.72808,R,ugm-3,5.637,R,ugm-3 (Ref.eq)
02-01-2022,06:00,3.625,R,ugm-3 (FIDAS),0.30489,R,ugm-3,0.46862,R,ugm-3,0.93611,R,ugm-3,2.406,R,ugm-3 (Ref.eq)
02-01-2022,07:00,4.000,R,ugm-3 (FIDAS),0.40652,R,ugm-3,0.78084,R,ugm-3,1.40416,R,ugm-3,2.241,R,ugm-3 (Ref.eq)
02-01-2022,08:00,5.700,R,ugm-3 (FIDAS),0.27101,R,ugm-3,0.05251,R,ugm-3,0.46805,R,ugm-3,3.278,R,ugm-3 (Ref.eq)
02-01-2022,09:00,5.425,R,ugm-3 (FIDAS),0.20326,R,ugm-3,0.67645,R,ugm-3,0.98811,R,ugm-3,2.807,R,ugm-3 (Ref.eq)
02-01-2022,10:00,4.375,R,ugm-3 (FIDAS),0.30489,R,ugm-3,1.45673,R,ugm-3,1.92422,R,ugm-3,2.193,R,ugm-3 (Ref.eq)
02-01-2022,11:00,2.675,R,ugm-3 (FIDAS),1.59220,R,ugm-3,3.64335,R,ugm-3,6.08469,R,ugm-3,1.344,R,ugm-3 (Ref.eq)
02-01-2022,12:00,3.950,R,ugm-3 (FIDAS),0.67753,R,ugm-3,2.28951,R,ugm-3,3.32838,R,ugm-3,2.241,R,ugm-3 (Ref.eq)
02-01-2022,13:00,5.325,R,ugm-3 (FIDAS),1.15181,R,ugm-3,3.27850,R,ugm-3,5.04457,R,ugm-3,2.830,R,ugm-3 (Ref.eq)
02-01-2022,14:00,7.050,R,ugm-3 (FIDAS),0.67753,R,ugm-3,3.01759,R,ugm-3,4.05646,R,ugm-3,3.797,R,ugm-3 (Ref.eq)
02-01-2022,15:00,3.400,R,ugm-3 (FIDAS),1.32119,R,ugm-3,4.16291,R,ugm-3,6.18870,R,ugm-3,1.675,R,ugm-3 (Ref.eq)
02-01-2022,16:00,3.775,R,ugm-3 (FIDAS),0.77916,R,ugm-3,3.06978,R,ugm-3,4.26449,R,ugm-3,1.887,R,ugm-3 (Ref.eq)
02-01-2022,17:00,7.725,R,ugm-3 (FIDAS),0.71141,R,ugm-3,2.75762,R,ugm-3,3.84844,R,ugm-3,3.797,R,ugm-3 (Ref.eq)
02-01-2022,18:00,11.950,R,ugm-3 (FIDAS),0.67753,R,ugm-3,3.74567,R,ugm-3,4.78454,R,ugm-3,5.542,R,ugm-3 (Ref.eq)
02-01-2022,19:00,10.600,R,ugm-3 (FIDAS),0.54203,R,ugm-3,2.44528,R,ugm-3,3.27637,R,ugm-3,5.165,R,ugm-3 (Ref.eq)
02-01-2022,20:00,10.175,R,ugm-3 (FIDAS),0.74529,R,ugm-3,3.01772,R,ugm-3,4.16047,R,ugm-3,5.448,R,ugm-3 (Ref.eq)
02-01-2022,21:00,11.275,R,ugm-3 (FIDAS),0.98242,R,ugm-3,2.96615,R,ugm-3,4.47251,R,ugm-3,6.061,R,ugm-3 (Ref.eq)
02-01-2022,22:00,13.175,R,ugm-3 (FIDAS),0.60978,R,ugm-3,1.97735,R,ugm-3,2.91233,R,ugm-3,7.052,R,ugm-3 (Ref.eq)
02-01-2022,23:00,15.525,R,ugm-3 (FIDAS),0.67753,R,ugm-3,1.76945,R,ugm-3,2.80832,R,ugm-3,8.396,R,ugm-3 (Ref.eq)
02-01-2022,24:00,16.925,R,ugm-3 (FIDAS),0.33877,R,ugm-3,0.72871,R,ugm-3,1.24814,R,ugm-3,9.245,R,ugm-3 (Ref.eq)
03-01-2022,01:00,15.550,R,ugm-3 (FIDAS),0.36149,R,ugm-3,0.48619,R,ugm-3,1.04046,R,ugm-3,8.396,R,ugm-3 (Ref.eq)
03-01-2022,02:00,14.200,R,ugm-3 (FIDAS),0.13556,R,ugm-3,0.78059,R,ugm-3,0.98844,R,ugm-3,7.689,R,ugm-3 (Ref.eq)
03-01-2022,03:00,14.050,R,ugm-3 (FIDAS),0.33889,R,ugm-3,0.36476,R,ugm-3,0.88439,R,ugm-3,7.453,R,ugm-3 (Ref.eq)
03-01-2022,04:00,12.775,R,ugm-3 (FIDAS),0.30500,R,ugm-3,0.15661,R,ugm-3,0.62427,R,ugm-3,6.910,R,ugm-3 (Ref.eq)
03-01-2022,05:00,13.375,R,ugm-3 (FIDAS),0.50834,R,ugm-3,0.57316,R,ugm-3,1.35260,R,ugm-3,7.076,R,ugm-3 (Ref.eq)
03-01-2022,06:00,14.450,R,ugm-3 (FIDAS),0.40667,R,ugm-3,0.57298,R,ugm-3,1.19653,R,ugm-3,7.359,R,ugm-3 (Ref.eq)
03-01-2022,07:00,14.525,R,ugm-3 (FIDAS),0.61001,R,ugm-3,1.66582,R,ugm-3,2.60115,R,ugm-3,7.571,R,ugm-3 (Ref.eq)
03-01-2022,08:00,15.000,R,ugm-3 (FIDAS),0.88112,R,ugm-3,3.59115,R,ugm-3,4.94218,R,ugm-3,7.783,R,ugm-3 (Ref.eq)
03-01-2022,09:00,13.125,R,ugm-3 (FIDAS),0.88112,R,ugm-3,3.43508,R,ugm-3,4.78611,R,ugm-3,6.792,R,ugm-3 (Ref.eq)
03-01-2022,10:00,10.525,R,ugm-3 (FIDAS),0.98279,R,ugm-3,3.90347,R,ugm-3,5.41038,R,ugm-3,5.660,R,ugm-3 (Ref.eq)
03-01-2022,11:00,8.900,R,ugm-3 (FIDAS),1.11834,R,ugm-3,3.48752,R,ugm-3,5.20229,R,ugm-3,4.764,R,ugm-3 (Ref.eq)
03-01-2022,12:00,9.250,R,ugm-3 (FIDAS),0.98279,R,ugm-3,4.05954,R,ugm-3,5.56645,R,ugm-3,4.505,R,ugm-3 (Ref.eq)
03-01-2022,13:00,10.650,R,ugm-3 (FIDAS),1.76224,R,ugm-3,4.52913,R,ugm-3,7.23119,R,ugm-3,5.189,R,ugm-3 (Ref.eq)
03-01-2022,14:00,11.000,R,ugm-3 (FIDAS),1.32168,R,ugm-3,4.58037,R,ugm-3,6.60691,R,ugm-3,5.542,R,ugm-3 (Ref.eq)
03-01-2022,15:00,10.775,R,ugm-3 (FIDAS),1.11834,R,ugm-3,5.04821,R,ugm-3,6.76298,R,ugm-3,5.401,R,ugm-3 (Ref.eq)
03-01-2022,16:00,11.450,R,ugm-3 (FIDAS),1.83002,R,ugm-3,6.76623,R,ugm-3,9.57222,R,ugm-3,5.755,R,ugm-3 (Ref.eq)
03-01-2022,17:00,12.025,R,ugm-3 (FIDAS),1.72835,R,ugm-3,9.88743,R,ugm-3,12.53753,R,ugm-3,6.226,R,ugm-3 (Ref.eq)
03-01-2022,18:00,12.150,R,ugm-3 (FIDAS),1.76224,R,ugm-3,11.24009,R,ugm-3,13.94214,R,ugm-3,6.368,R,ugm-3 (Ref.eq)
03-01-2022,19:00,11.625,R,ugm-3 (FIDAS),1.15223,R,ugm-3,10.92686,R,ugm-3,12.69360,R,ugm-3,6.297,R,ugm-3 (Ref.eq)
03-01-2022,20:00,11.150,R,ugm-3 (FIDAS),1.05057,R,ugm-3,12.90355,R,ugm-3,14.51440,R,ugm-3,6.109,R,ugm-3 (Ref.eq)
03-01-2022,21:00,10.800,R,ugm-3 (FIDAS),0.98279,R,ugm-3,10.82252,R,ugm-3,12.32943,R,ugm-3,6.250,R,ugm-3 (Ref.eq)
03-01-2022,22:00,10.875,R,ugm-3 (FIDAS),5.04949,R,ugm-3,13.53494,R,ugm-3,21.27738,R,ugm-3,6.203,R,ugm-3 (Ref.eq)
03-01-2022,23:00,10.675,R,ugm-3 (FIDAS),0.88112,R,ugm-3,5.30791,R,ugm-3,6.65894,R,ugm-3,6.203,R,ugm-3 (Ref.eq)
03-01-2022,24:00,12.475,R,ugm-3 (FIDAS),1.18612,R,ugm-3,3.95585,R,ugm-3,5.77455,R,ugm-3,6.462,R,ugm-3 (Ref.eq)
04-01-2022,01:00,12.250,R,ugm-3 (FIDAS),0.45202,R,ugm-3,2.22115,R,ugm-3,2.91424,R,ugm-3,6.486,R,ugm-3 (Ref.eq)
04-01-2022,02:00,10.100,R,ugm-3 (FIDAS),0.31642,R,ugm-3,1.94337,R,ugm-3,2.42853,R,ugm-3,5.896,R,ugm-3 (Ref.eq)
04-01-2022,03:00,9.900,R,ugm-3 (FIDAS),0.27121,R,ugm-3,1.56166,R,ugm-3,1.97752,R,ugm-3,5.566,R,ugm-3 (Ref.eq)
04-01-2022,04:00,9.025,R,ugm-3 (FIDAS),0.44072,R,ugm-3,1.45787,R,ugm-3,2.13364,R,ugm-3,4.835,R,ugm-3 (Ref.eq)
04-01-2022,05:00,6.675,R,ugm-3 (FIDAS),0.64413,R,ugm-3,3.59186,R,ugm-3,4.57952,R,ugm-3,4.127,R,ugm-3 (Ref.eq)
04-01-2022,06:00,6.375,R,ugm-3 (FIDAS),0.37292,R,ugm-3,4.47607,R,ugm-3,5.04788,R,ugm-3,3.750,R,ugm-3 (Ref.eq)
04-01-2022,07:00,7.025,R,ugm-3 (FIDAS),0.77974,R,ugm-3,12.33481,R,ugm-3,13.53039,R,ugm-3,4.363,R,ugm-3 (Ref.eq)
04-01-2022,08:00,7.025,R,ugm-3 (FIDAS),2.50872,R,ugm-3,26.28447,R,ugm-3,30.13113,R,ugm-3,4.410,R,ugm-3 (Ref.eq)
04-01-2022,09:00,1.975,R,ugm-3 (FIDAS),0.84754,R,ugm-3,8.64008,R,ugm-3,9.93963,R,ugm-3,1.109,R,ugm-3 (Ref.eq)
04-01-2022,10:00,2.250,R,ugm-3 (FIDAS),1.52558,R,ugm-3,10.98304,R,ugm-3,13.32223,R,ugm-3,1.439,R,ugm-3 (Ref.eq)
04-01-2022,11:00,2.575,R,ugm-3 (FIDAS),1.28826,R,ugm-3,11.39896,R,ugm-3,13.37427,R,ugm-3,1.557,R,ugm-3 (Ref.eq)
04-01-2022,12:00,5.350,R,ugm-3 (FIDAS),1.62728,R,ugm-3,14.99029,R,ugm-3,17.48542,R,ugm-3,2.783,R,ugm-3 (Ref.eq)
04-01-2022,13:00,4.575,R,ugm-3 (FIDAS),2.37312,R,ugm-3,16.50073,R,ugm-3,20.13946,R,ugm-3,2.995,R,ugm-3 (Ref.eq)
04-01-2022,14:00,4.650,R,ugm-3 (FIDAS),2.71214,R,ugm-3,13.11871,R,ugm-3,17.27726,R,ugm-3,2.712,R,ugm-3 (Ref.eq)
04-01-2022,15:00,6.725,R,ugm-3 (FIDAS),2.67823,R,ugm-3,16.60533,R,ugm-3,20.71190,R,ugm-3,3.939,R,ugm-3 (Ref.eq)
04-01-2022,16:00,7.475,R,ugm-3 (FIDAS),4.00040,R,ugm-3,20.97895,R,ugm-3,27.11281,R,ugm-3,4.363,R,ugm-3 (Ref.eq)
04-01-2022,17:00,9.550,R,ugm-3 (FIDAS),12.34021,R,ugm-3,37.64603,R,ugm-3,56.56742,R,ugm-3,5.118,R,ugm-3 (Ref.eq)
04-01-2022,18:00,10.925,R,ugm-3 (FIDAS),6.98375,R,ugm-3,32.69305,R,ugm-3,43.40132,R,ugm-3,6.085,R,ugm-3 (Ref.eq)
04-01-2022,19:00,12.575,R,ugm-3 (FIDAS),2.91555,R,ugm-3,25.45253,R,ugm-3,29.92297,R,ugm-3,7.406,R,ugm-3 (Ref.eq)
04-01-2022,20:00,11.200,R,ugm-3 (FIDAS),1.42387,R,ugm-3,16.65522,R,ugm-3,18.83846,R,ugm-3,6.274,R,ugm-3 (Ref.eq)
04-01-2022,21:00,7.750,R,ugm-3 (FIDAS),0.94925,R,ugm-3,7.65150,R,ugm-3,9.10699,R,ugm-3,4.316,R,ugm-3 (Ref.eq)
04-01-2022,22:00,7.175,R,ugm-3 (FIDAS),2.10191,R,ugm-3,9.73507,R,ugm-3,12.95795,R,ugm-3,4.481,R,ugm-3 (Ref.eq)
04-01-2022,23:00,8.125,R,ugm-3 (FIDAS),0.61023,R,ugm-3,6.92236,R,ugm-3,7.85803,R,ugm-3,4.646,R,ugm-3 (Ref.eq)
04-01-2022,24:00,7.900,R,ugm-3 (FIDAS),0.81364,R,ugm-3,6.71455,R,ugm-3,7.96211,R,ugm-3,4.458,R,ugm-3 (Ref.eq)
05-01-2022,01:00,6.925,R,ugm-3 (FIDAS),0.72350,R,ugm-3,6.94212,R,ugm-3,8.05148,R,ugm-3,4.009,R,ugm-3 (Ref.eq)
05-01-2022,02:00,6.275,R,ugm-3 (FIDAS),0.33914,R,ugm-3,2.49929,R,ugm-3,3.01930,R,ugm-3,3.420,R,ugm-3 (Ref.eq)
05-01-2022,03:00,7.000,R,ugm-3 (FIDAS),0.33914,R,ugm-3,1.71844,R,ugm-3,2.23845,R,ugm-3,3.915,R,ugm-3 (Ref.eq)
05-01-2022,04:00,7.850,R,ugm-3 (FIDAS),0.33914,R,ugm-3,1.82255,R,ugm-3,2.34256,R,ugm-3,4.458,R,ugm-3 (Ref.eq)
05-01-2022,05:00,8.475,R,ugm-3 (FIDAS),0.61046,R,ugm-3,1.97917,R,ugm-3,2.91519,R,ugm-3,4.693,R,ugm-3 (Ref.eq)
05-01-2022,06:00,7.350,R,ugm-3 (FIDAS),1.79745,R,ugm-3,7.81151,R,ugm-3,10.56757,R,ugm-3,4.458,R,ugm-3 (Ref.eq)
05-01-2022,07:00,8.100,R,ugm-3 (FIDAS),0.67828,R,ugm-3,7.34115,R,ugm-3,8.38117,R,ugm-3,4.599,R,ugm-3 (Ref.eq)
05-01-2022,08:00,8.300,R,ugm-3 (FIDAS),1.56005,R,ugm-3,15.72378,R,ugm-3,18.11583,R,ugm-3,4.528,R,ugm-3 (Ref.eq)
05-01-2022,09:00,8.950,R,ugm-3 (FIDAS),1.05134,R,ugm-3,14.05711,R,ugm-3,15.66915,R,ugm-3,4.670,R,ugm-3 (Ref.eq)
05-01-2022,10:00,10.300,R,ugm-3 (FIDAS),1.69571,R,ugm-3,13.32938,R,ugm-3,15.92943,R,ugm-3,5.613,R,ugm-3 (Ref.eq)
05-01-2022,11:00,10.825,R,ugm-3 (FIDAS),4.34102,R,ugm-3,14.84339,R,ugm-3,21.49953,R,ugm-3,5.778,R,ugm-3 (Ref.eq)
05-01-2022,12:00,10.450,R,ugm-3 (FIDAS),2.20442,R,ugm-3,11.09177,R,ugm-3,14.47184,R,ugm-3,5.566,R,ugm-3 (Ref.eq)
05-01-2022,13:00,9.950,R,ugm-3 (FIDAS),1.62788,R,ugm-3,7.13449,R,ugm-3,9.63054,R,ugm-3,4.882,R,ugm-3 (Ref.eq)
05-01-2022,14:00,8.650,R,ugm-3 (FIDAS),1.39048,R,ugm-3,6.04090,R,ugm-3,8.17294,R,ugm-3,4.316,R,ugm-3 (Ref.eq)
05-01-2022,15:00,8.700,R,ugm-3 (FIDAS),1.18700,R,ugm-3,7.70639,R,ugm-3,9.52643,R,ugm-3,4.434,R,ugm-3 (Ref.eq)
05-01-2022,16:00,8.875,R,ugm-3 (FIDAS),0.67828,R,ugm-3,8.79875,R,ugm-3,9.83877,R,ugm-3,4.693,R,ugm-3 (Ref.eq)
05-01-2022,17:00,10.700,R,ugm-3 (FIDAS),23.06166,R,ugm-3,37.31081,R,ugm-3,72.67153,R,ugm-3,5.660,R,ugm-3 (Ref.eq)
05-01-2022,18:00,9.150,R,ugm-3 (FIDAS),20.72158,R,ugm-3,40.69066,R,ugm-3,72.46330,R,ugm-3,5.778,R,ugm-3 (Ref.eq)
05-01-2022,19:00,8.975,R,ugm-3 (FIDAS),14.92225,R,ugm-3,39.32761,R,ugm-3,62.20808,R,ugm-3,5.967,R,ugm-3 (Ref.eq)
05-01-2022,20:00,12.175,R,ugm-3 (FIDAS),15.77011,R,ugm-3,43.28534,R,ugm-3,67.46583,R,ugm-3,8.396,R,ugm-3 (Ref.eq)
05-01-2022,21:00,11.650,R,ugm-3 (FIDAS),7.18981,R,ugm-3,36.81613,R,ugm-3,47.84035,R,ugm-3,8.726,R,ugm-3 (Ref.eq)
05-01-2022,22:00,13.725,R,ugm-3 (FIDAS),12.85348,R,ugm-3,37.60632,R,ugm-3,57.31472,R,ugm-3,10.448,R,ugm-3 (Ref.eq)
05-01-2022,23:00,17.175,R,ugm-3 (FIDAS),12.07346,R,ugm-3,38.38589,R,ugm-3,56.89827,R,ugm-3,13.726,R,ugm-3 (Ref.eq)
05-01-2022,24:00,18.075,R,ugm-3 (FIDAS),19.70415,R,ugm-3,34.49420,R,ugm-3,64.70681,R,ugm-3,14.976,R,ugm-3 (Ref.eq)
06-01-2022,01:00,16.750,R,ugm-3 (FIDAS),37.99793,R,ugm-3,33.10981,R,ugm-3,91.37249,R,ugm-3,13.726,R,ugm-3 (Ref.eq)
06-01-2022,02:00,15.775,R,ugm-3 (FIDAS),30.80546,R,ugm-3,32.69919,R,ugm-3,79.93357,R,ugm-3,13.019,R,ugm-3 (Ref.eq)
06-01-2022,03:00,16.000,R,ugm-3 (FIDAS),22.08630,R,ugm-3,29.09227,R,ugm-3,62.95745,R,ugm-3,13.231,R,ugm-3 (Ref.eq)
06-01-2022,04:00,14.075,R,ugm-3 (FIDAS),10.78870,R,ugm-3,28.03290,R,ugm-3,44.57533,R,ugm-3,11.651,R,ugm-3 (Ref.eq)
06-01-2022,05:00,13.875,R,ugm-3 (FIDAS),2.91770,R,ugm-3,24.37525,R,ugm-3,28.84899,R,ugm-3,11.226,R,ugm-3 (Ref.eq)
06-01-2022,06:00,13.000,R,ugm-3 (FIDAS),26.86996,R,ugm-3,21.49705,R,ugm-3,62.69708,R,ugm-3,10.708,R,ugm-3 (Ref.eq)
06-01-2022,07:00,13.250,R,ugm-3 (FIDAS),114.90981,R,ugm-3,24.34435,R,ugm-3,200.53693,R,ugm-3,10.920,R,ugm-3 (Ref.eq)
06-01-2022,08:00,15.350,R,ugm-3 (FIDAS),72.16214,R,ugm-3,32.50433,R,ugm-3,143.15140,R,ugm-3,12.052,R,ugm-3 (Ref.eq)
06-01-2022,09:00,14.550,R,ugm-3 (FIDAS),32.40002,R,ugm-3,42.43955,R,ugm-3,92.11889,R,ugm-3,10.165,R,ugm-3 (Ref.eq)
06-01-2022,10:00,15.575,R,ugm-3 (FIDAS),25.85216,R,ugm-3,42.22088,R,ugm-3,81.86031,R,ugm-3,10.401,R,ugm-3 (Ref.eq)
06-01-2022,11:00,16.225,R,ugm-3 (FIDAS),16.38661,R,ugm-3,41.00819,R,ugm-3,66.13397,R,ugm-3,9.906,R,ugm-3 (Ref.eq)
06-01-2022,12:00,15.475,R,ugm-3 (FIDAS),5.73362,R,ugm-3,31.46177,R,ugm-3,40.25319,R,ugm-3,8.844,R,ugm-3 (Ref.eq)
06-01-2022,13:00,12.750,R,ugm-3 (FIDAS),3.73194,R,ugm-3,26.98024,R,ugm-3,32.70247,R,ugm-3,8.986,R,ugm-3 (Ref.eq)
06-01-2022,14:00,12.600,R,ugm-3 (FIDAS),4.27477,R,ugm-3,30.88665,R,ugm-3,37.44120,R,ugm-3,9.009,R,ugm-3 (Ref.eq)
06-01-2022,15:00,9.925,R,ugm-3 (FIDAS),2.57843,R,ugm-3,30.15492,R,ugm-3,34.10846,R,ugm-3,6.462,R,ugm-3 (Ref.eq)
06-01-2022,16:00,7.125,R,ugm-3 (FIDAS),3.08733,R,ugm-3,15.57501,R,ugm-3,20.30886,R,ugm-3,4.363,R,ugm-3 (Ref.eq)
06-01-2022,17:00,5.400,R,ugm-3 (FIDAS),1.66241,R,ugm-3,9.48010,R,ugm-3,12.02909,R,ugm-3,3.302,R,ugm-3 (Ref.eq)
06-01-2022,18:00,3.650,R,ugm-3 (FIDAS),1.08566,R,ugm-3,8.48978,R,ugm-3,10.15443,R,ugm-3,2.524,R,ugm-3 (Ref.eq)
06-01-2022,19:00,3.425,R,ugm-3 (FIDAS),2.00168,R,ugm-3,8.43916,R,ugm-3,11.50835,R,ugm-3,2.170,R,ugm-3 (Ref.eq)
06-01-2022,20:00,2.825,R,ugm-3 (FIDAS),1.62848,R,ugm-3,14.16670,R,ugm-3,16.66368,R,ugm-3,1.415,R,ugm-3 (Ref.eq)
06-01-2022,21:00,5.850,R,ugm-3 (FIDAS),0.98388,R,ugm-3,9.42695,R,ugm-3,10.93554,R,ugm-3,3.184,R,ugm-3 (Ref.eq)
06-01-2022,22:00,8.850,R,ugm-3 (FIDAS),1.62848,R,ugm-3,6.66805,R,ugm-3,9.16502,R,ugm-3,4.929,R,ugm-3 (Ref.eq)
06-01-2022,23:00,7.550,R,ugm-3 (FIDAS),0.64461,R,ugm-3,5.00012,R,ugm-3,5.98851,R,ugm-3,4.434,R,ugm-3 (Ref.eq)
06-01-2022,24:00,7.575,R,ugm-3 (FIDAS),1.01780,R,ugm-3,6.45879,R,ugm-3,8.01939,R,ugm-3,3.915,R,ugm-3 (Ref.eq)
07-01-2022,01:00,7.975,R,ugm-3 (FIDAS),0.95030,R,ugm-3,5.97455,R,ugm-3,7.43165,R,ugm-3,3.939,R,ugm-3 (Ref.eq)
07-01-2022,02:00,8.000,R,ugm-3 (FIDAS),0.27151,R,ugm-3,1.32005,R,ugm-3,1.73637,R,ugm-3,3.656,R,ugm-3 (Ref.eq)
07-01-2022,03:00,5.375,R,ugm-3 (FIDAS),0.30545,R,ugm-3,0.67765,R,ugm-3,1.14600,R,ugm-3,2.925,R,ugm-3 (Ref.eq)
07-01-2022,04:00,3.700,R,ugm-3 (FIDAS),0.30545,R,ugm-3,0.83392,R,ugm-3,1.30228,R,ugm-3,1.934,R,ugm-3 (Ref.eq)
07-01-2022,05:00,5.275,R,ugm-3 (FIDAS),0.30545,R,ugm-3,0.93810,R,ugm-3,1.40646,R,ugm-3,2.359,R,ugm-3 (Ref.eq)
07-01-2022,06:00,5.075,R,ugm-3 (FIDAS),1.12000,R,ugm-3,4.42944,R,ugm-3,6.14674,R,ugm-3,2.500,R,ugm-3 (Ref.eq)
07-01-2022,07:00,4.600,R,ugm-3 (FIDAS),0.84848,R,ugm-3,3.96021,R,ugm-3,5.26119,R,ugm-3,2.547,R,ugm-3 (Ref.eq)
07-01-2022,08:00,6.475,R,ugm-3 (FIDAS),2.88484,R,ugm-3,12.03741,R,ugm-3,16.46076,R,ugm-3,3.868,R,ugm-3 (Ref.eq)
07-01-2022,09:00,7.525,R,ugm-3 (FIDAS),13.03267,R,ugm-3,22.21057,R,ugm-3,42.19372,R,ugm-3,3.750,R,ugm-3 (Ref.eq)
07-01-2022,10:00,5.025,R,ugm-3 (FIDAS),3.29211,R,ugm-3,10.47529,R,ugm-3,15.52312,R,ugm-3,2.783,R,ugm-3 (Ref.eq)
07-01-2022,11:00,5.975,R,ugm-3 (FIDAS),9.50299,R,ugm-3,14.18319,R,ugm-3,28.75424,R,ugm-3,3.066,R,ugm-3 (Ref.eq)
07-01-2022,12:00,6.850,R,ugm-3 (FIDAS),4.58180,R,ugm-3,12.45671,R,ugm-3,19.48204,R,ugm-3,3.373,R,ugm-3 (Ref.eq)
07-01-2022,13:00,8.225,R,ugm-3 (FIDAS),2.13817,R,ugm-3,11.30700,R,ugm-3,14.58548,R,ugm-3,3.939,R,ugm-3 (Ref.eq)
07-01-2022,14:00,10.175,R,ugm-3 (FIDAS),2.27393,R,ugm-3,12.81784,R,ugm-3,16.30449,R,ugm-3,4.505,R,ugm-3 (Ref.eq)
07-01-2022,15:00,10.700,R,ugm-3 (FIDAS),16.32478,R,ugm-3,25.96613,R,ugm-3,50.99710,R,ugm-3,4.976,R,ugm-3 (Ref.eq)
07-01-2022,16:00,4.175,R,ugm-3 (FIDAS),2.57938,R,ugm-3,8.85939,R,ugm-3,12.81439,R,ugm-3,2.193,R,ugm-3 (Ref.eq)
07-01-2022,17:00,1.775,R,ugm-3 (FIDAS),1.15394,R,ugm-3,6.35686,R,ugm-3,8.12620,R,ugm-3,1.203,R,ugm-3 (Ref.eq)
07-01-2022,18:00,2.350,R,ugm-3 (FIDAS),1.22181,R,ugm-3,11.82652,R,ugm-3,13.69994,R,ugm-3,1.745,R,ugm-3 (Ref.eq)
07-01-2022,19:00,6.000,R,ugm-3 (FIDAS),1.39151,R,ugm-3,13.49369,R,ugm-3,15.62730,R,ugm-3,5.094,R,ugm-3 (Ref.eq)
07-01-2022,20:00,7.850,R,ugm-3 (FIDAS),1.83272,R,ugm-3,13.12972,R,ugm-3,15.93985,R,ugm-3,6.981,R,ugm-3 (Ref.eq)
07-01-2022,21:00,10.825,R,ugm-3 (FIDAS),1.08606,R,ugm-3,13.02440,R,ugm-3,14.68966,R,ugm-3,9.623,R,ugm-3 (Ref.eq)
07-01-2022,22:00,10.650,R,ugm-3 (FIDAS),3.56362,R,ugm-3,19.07072,R,ugm-3,24.53487,R,ugm-3,9.741,R,ugm-3 (Ref.eq)
07-01-2022,23:00,9.475,R,ugm-3 (FIDAS),0.57697,R,ugm-3,11.30463,R,ugm-3,12.18930,R,ugm-3,8.467,R,ugm-3 (Ref.eq)
07-01-2022,24:00,8.325,R,ugm-3 (FIDAS),0.74666,R,ugm-3,10.57561,R,ugm-3,11.72048,R,ugm-3,7.076,R,ugm-3 (Ref.eq)
08-01-2022,01:00,9.425,R,ugm-3 (FIDAS),1.13173,R,ugm-3,10.63169,R,ugm-3,12.36697,R,ugm-3,7.712,R,ugm-3 (Ref.eq)
08-01-2022,02:00,10.625,R,ugm-3 (FIDAS),0.47533,R,ugm-3,14.17408,R,ugm-3,14.90290,R,ugm-3,8.656,R,ugm-3 (Ref.eq)
08-01-2022,03:00,10.875,R,ugm-3 (FIDAS),0.57718,R,ugm-3,13.23628,R,ugm-3,14.12128,R,ugm-3,9.057,R,ugm-3 (Ref.eq)
08-01-2022,04:00,7.575,R,ugm-3 (FIDAS),0.50928,R,ugm-3,4.22149,R,ugm-3,5.00237,R,ugm-3,5.542,R,ugm-3 (Ref.eq)
08-01-2022,05:00,7.525,R,ugm-3 (FIDAS),0.44137,R,ugm-3,1.66810,R,ugm-3,2.34486,R,ugm-3,4.009,R,ugm-3 (Ref.eq)
08-01-2022,06:00,7.175,R,ugm-3 (FIDAS),0.61113,R,ugm-3,2.44997,R,ugm-3,3.38702,R,ugm-3,4.198,R,ugm-3 (Ref.eq)
08-01-2022,07:00,7.875,R,ugm-3 (FIDAS),0.67904,R,ugm-3,4.79493,R,ugm-3,5.83610,R,ugm-3,4.929,R,ugm-3 (Ref.eq)
08-01-2022,08:00,8.350,R,ugm-3 (FIDAS),0.81484,R,ugm-3,4.27404,R,ugm-3,5.52345,R,ugm-3,5.377,R,ugm-3 (Ref.eq)
08-01-2022,09:00,7.425,R,ugm-3 (FIDAS),0.67904,R,ugm-3,3.75277,R,ugm-3,4.79394,R,ugm-3,4.788,R,ugm-3 (Ref.eq)
08-01-2022,10:00,7.125,R,ugm-3 (FIDAS),6.62059,R,ugm-3,8.39903,R,ugm-3,18.55046,R,ugm-3,4.434,R,ugm-3 (Ref.eq)
08-01-2022,11:00,4.275,R,ugm-3 (FIDAS),4.10816,R,ugm-3,5.58154,R,ugm-3,11.88063,R,ugm-3,2.571,R,ugm-3 (Ref.eq)
08-01-2022,12:00,2.775,R,ugm-3 (FIDAS),7.19777,R,ugm-3,8.81673,R,ugm-3,19.85316,R,ugm-3,1.557,R,ugm-3 (Ref.eq)
08-01-2022,13:00,2.300,R,ugm-3 (FIDAS),13.27514,R,ugm-3,13.72373,R,ugm-3,34.07865,R,ugm-3,1.061,R,ugm-3 (Ref.eq)
08-01-2022,14:00,2.800,R,ugm-3 (FIDAS),2.44453,R,ugm-3,6.20441,R,ugm-3,9.95264,R,ugm-3,1.439,R,ugm-3 (Ref.eq)
08-01-2022,15:00,10.250,R,ugm-3 (FIDAS),1.39202,R,ugm-3,6.41131,R,ugm-3,8.54572,R,ugm-3,5.425,R,ugm-3 (Ref.eq)
08-01-2022,16:00,9.625,R,ugm-3 (FIDAS),1.32412,R,ugm-3,8.07867,R,ugm-3,10.10896,R,ugm-3,5.519,R,ugm-3 (Ref.eq)
08-01-2022,17:00,10.100,R,ugm-3 (FIDAS),2.51243,R,ugm-3,16.46979,R,ugm-3,20.32213,R,ugm-3,5.802,R,ugm-3 (Ref.eq)
08-01-2022,18:00,14.925,R,ugm-3 (FIDAS),1.01855,R,ugm-3,8.49509,R,ugm-3,10.05685,R,ugm-3,8.774,R,ugm-3 (Ref.eq)
08-01-2022,19:00,16.125,R,ugm-3 (FIDAS),1.32412,R,ugm-3,6.93229,R,ugm-3,8.96258,R,ugm-3,8.939,R,ugm-3 (Ref.eq)
08-01-2022,20:00,10.900,R,ugm-3 (FIDAS),0.78089,R,ugm-3,6.72307,R,ugm-3,7.92042,R,ugm-3,6.557,R,ugm-3 (Ref.eq)
08-01-2022,21:00,8.875,R,ugm-3 (FIDAS),1.18831,R,ugm-3,8.49534,R,ugm-3,10.31739,R,ugm-3,4.882,R,ugm-3 (Ref.eq)
08-01-2022,22:00,9.950,R,ugm-3 (FIDAS),1.08646,R,ugm-3,6.04611,R,ugm-3,7.71199,R,ugm-3,5.189,R,ugm-3 (Ref.eq)
08-01-2022,23:00,9.250,R,ugm-3 (FIDAS),0.57718,R,ugm-3,2.71046,R,ugm-3,3.59545,R,ugm-3,4.835,R,ugm-3 (Ref.eq)
08-01-2022,24:00,9.350,R,ugm-3 (FIDAS),0.40742,R,ugm-3,1.30329,R,ugm-3,1.92800,R,ugm-3,4.859,R,ugm-3 (Ref.eq)
09-01-2022,01:00,8.300,R,ugm-3 (FIDAS),0.36229,R,ugm-3,0.90400,R,ugm-3,1.45950,R,ugm-3,4.575,R,ugm-3 (Ref.eq)
09-01-2022,02:00,9.025,R,ugm-3 (FIDAS),0.40757,R,ugm-3,1.14732,R,ugm-3,1.77225,R,ugm-3,4.764,R,ugm-3 (Ref.eq)
09-01-2022,03:00,8.825,R,ugm-3 (FIDAS),0.40757,R,ugm-3,0.78244,R,ugm-3,1.40738,R,ugm-3,4.835,R,ugm-3 (Ref.eq)
09-01-2022,04:00,8.875,R,ugm-3 (FIDAS),0.44154,R,ugm-3,0.78249,R,ugm-3,1.45950,R,ugm-3,4.693,R,ugm-3 (Ref.eq)
09-01-2022,05:00,10.375,R,ugm-3 (FIDAS),0.40757,R,ugm-3,0.67819,R,ugm-3,1.30313,R,ugm-3,4.953,R,ugm-3 (Ref.eq)
09-01-2022,06:00,9.725,R,ugm-3 (FIDAS),0.33964,R,ugm-3,0.62597,R,ugm-3,1.14675,R,ugm-3,4.882,R,ugm-3 (Ref.eq)
09-01-2022,07:00,9.750,R,ugm-3 (FIDAS),1.01893,R,ugm-3,2.76404,R,ugm-3,4.32638,R,ugm-3,4.764,R,ugm-3 (Ref.eq)
09-01-2022,08:00,8.775,R,ugm-3 (FIDAS),0.67929,R,ugm-3,2.65932,R,ugm-3,3.70088,R,ugm-3,4.481,R,ugm-3 (Ref.eq)
09-01-2022,09:00,9.075,R,ugm-3 (FIDAS),0.61136,R,ugm-3,3.85810,R,ugm-3,4.79550,R,ugm-3,4.552,R,ugm-3 (Ref.eq)
09-01-2022,10:00,8.525,R,ugm-3 (FIDAS),1.35857,R,ugm-3,5.57927,R,ugm-3,7.66238,R,ugm-3,4.292,R,ugm-3 (Ref.eq)
09-01-2022,11:00,9.825,R,ugm-3 (FIDAS),3.05678,R,ugm-3,9.02188,R,ugm-3,13.70889,R,ugm-3,4.741,R,ugm-3 (Ref.eq)
09-01-2022,12:00,10.075,R,ugm-3 (FIDAS),1.08686,R,ugm-3,5.37039,R,ugm-3,7.03688,R,ugm-3,4.976,R,ugm-3 (Ref.eq)
09-01-2022,13:00,10.375,R,ugm-3 (FIDAS),1.80011,R,ugm-3,6.04901,R,ugm-3,8.80913,R,ugm-3,5.094,R,ugm-3 (Ref.eq)
09-01-2022,14:00,10.525,R,ugm-3 (FIDAS),1.59632,R,ugm-3,5.42323,R,ugm-3,7.87088,R,ugm-3,5.354,R,ugm-3 (Ref.eq)
09-01-2022,15:00,10.975,R,ugm-3 (FIDAS),1.29064,R,ugm-3,6.20468,R,ugm-3,8.18363,R,ugm-3,5.660,R,ugm-3 (Ref.eq)
09-01-2022,16:00,10.675,R,ugm-3 (FIDAS),1.93596,R,ugm-3,18.76771,R,ugm-3,21.73615,R,ugm-3,5.755,R,ugm-3 (Ref.eq)
09-01-2022,17:00,10.875,R,ugm-3 (FIDAS),35.45870,R,ugm-3,43.57372,R,ugm-3,97.94297,R,ugm-3,6.462,R,ugm-3 (Ref.eq)
09-01-2022,18:00,12.925,R,ugm-3 (FIDAS),17.01610,R,ugm-3,45.94583,R,ugm-3,72.03682,R,ugm-3,8.585,R,ugm-3 (Ref.eq)
09-01-2022,19:00,12.525,R,ugm-3 (FIDAS),37.39467,R,ugm-3,40.03191,R,ugm-3,97.36959,R,ugm-3,9.151,R,ugm-3 (Ref.eq)